Weather History for Weslaco, TX

Change the Weather History Date:

Tuesday, February 12, 2013

  Actual Average (KMFE) Record (KMFE)
Temperature  
Mean Temperature 70 °F 64 °F  
Max Temperature 81 °F 75 °F 92 °F (1995)
Min Temperature 59 °F 54 °F 28 °F (1892)
Degree Days  
Heating Degree Days 0 4  
Month to date heating degree days 57  
Since 1 July heating degree days 484  
Cooling Degree Days 5 3  
Month to date cooling degree days 34  
Year to date cooling degree days 96  
Growing Degree Days 20 (Base 50)    
Moisture  
Dew Point 58 °F    
Average Humidity 74    
Maximum Humidity 93    
Minimum Humidity 50    
Precipitation  
Precipitation 0.00 in 0.04 in 1.38 in (1960)
Month to date precipitation 0.51  
Year to date precipitation 1.56  
Sea Level Pressure  
Sea Level Pressure 29.86 in    
Wind  
Wind Speed 7 mph (North)    
Max Wind Speed 12 mph    
Max Gust Speed 18 mph    
Visibility 8 miles    
Events      
T = Trace of Precipitation, MM = Missing Value Source: NWS Daily Summary

Daily Weather History Graph

Daily Weather History Graph

Search for Another Location

Airport:

Trip Planner

Search our weather history database for the weather conditions in past years. The results will help you decide how hot, cold, wet, or windy it might be!

Date:

Astronomy

Feb. 12, 2013 Rise Set
Actual Time 7:09 AM CST 6:23 PM CST
Civil Twilight 6:45 AM CST 6:46 PM CST
Nautical Twilight 6:18 AM CST 7:14 PM CST
Astronomical Twilight 5:51 AM CST 7:41 PM CST
Moon 8:28 AM CST (2/12) 9:01 PM CST (2/12)
Length of Visible Light 12h 01m
Length of Day
11h 13m
Waxing Crescent, 7% of the Moon is Illuminated
Feb 12
Waxing Crescent
Feb 17
First Quarter
Feb 25
Full
Mar 4
Last Quarter
Mar 11
New

Hourly Weather History & Observations

Time (CST) Temp. Heat Index Dew Point Humidity Pressure Visibility Wind Dir Wind Speed Gust Speed Precip Events Conditions
12:15 AM 64.4 °F - 61.0 °F 89% 29.87 in 7.0 mi NNE 8.1 mph - N/A   Overcast
12:35 AM 64.4 °F - 61.0 °F 89% 29.86 in 7.0 mi NNE 8.1 mph - N/A   Overcast
12:55 AM 64.0 °F - 61.0 °F 90% 29.85 in 5.0 mi NNE 6.9 mph - N/A   Overcast
1:15 AM 64.2 °F - 60.8 °F 89% 29.86 in 7.0 mi North 6.9 mph - N/A   Overcast
1:35 AM 63.7 °F - 60.8 °F 90% 29.86 in 5.0 mi North 6.9 mph - N/A   Overcast
2:15 AM 63.5 °F - 60.8 °F 91% 29.86 in 3.0 mi North 4.6 mph - N/A   Overcast
2:35 AM 63.0 °F - 60.4 °F 91% 29.85 in 2.5 mi NNE 5.8 mph - N/A   Overcast
2:55 AM 62.6 °F - 59.9 °F 91% 29.83 in 2.0 mi NNE 6.9 mph - N/A   Overcast
3:15 AM 62.6 °F - 60.1 °F 91% 29.84 in 2.5 mi North 5.8 mph - N/A   Overcast
3:55 AM 61.7 °F - 59.4 °F 92% 29.83 in 2.0 mi NNE 9.2 mph - N/A   Overcast
4:15 AM 61.7 °F - 59.4 °F 92% 29.83 in 2.5 mi North 5.8 mph - N/A   Overcast
4:35 AM 61.7 °F - 59.2 °F 91% 29.82 in 3.0 mi North 4.6 mph - N/A   Overcast
4:55 AM 61.7 °F - 59.2 °F 91% 29.81 in 5.0 mi North 5.8 mph - N/A   Overcast
5:15 AM 61.9 °F - 59.4 °F 91% 29.81 in 5.0 mi North 5.8 mph - N/A   Overcast
5:35 AM 61.9 °F - 59.4 °F 91% 29.82 in 4.0 mi North 5.8 mph - N/A   Overcast
5:55 AM 61.3 °F - 59.0 °F 92% 29.82 in 2.5 mi North 5.8 mph - N/A   Overcast
6:15 AM 61.2 °F - 58.8 °F 92% 29.82 in 2.0 mi NNW 8.1 mph - N/A   Overcast
6:35 AM 60.6 °F - 58.1 °F 91% 29.83 in 2.0 mi NNW 6.9 mph - N/A   Overcast
6:55 AM 59.9 °F - 57.7 °F 93% 29.85 in 1.8 mi NNW 10.4 mph - N/A   Overcast
7:15 AM 59.9 °F - 57.6 °F 92% 29.86 in 2.0 mi North 5.8 mph - N/A   Overcast
7:35 AM 59.5 °F - 57.4 °F 93% 29.88 in 2.5 mi NNW 8.1 mph - N/A   Overcast
7:55 AM 59.2 °F - 56.8 °F 92% 29.87 in 2.5 mi North 8.1 mph - N/A   Overcast
8:15 AM 59.4 °F - 57.0 °F 92% 29.87 in 3.0 mi NNW 9.2 mph - N/A   Overcast
8:35 AM 59.5 °F - 57.0 °F 91% 29.88 in 5.0 mi North 9.2 mph - N/A   Overcast
8:55 AM 60.1 °F - 57.2 °F 90% 29.88 in 7.0 mi NNW 8.1 mph - N/A   Overcast
9:15 AM 60.3 °F - 57.2 °F 90% 29.89 in 7.0 mi NNW 6.9 mph - N/A   Overcast
9:55 AM 63.3 °F - 58.3 °F 84% 29.89 in 7.0 mi NNW 4.6 mph - N/A   Overcast
10:15 AM 64.8 °F - 58.5 °F 80% 29.90 in 10.0 mi NW 6.9 mph - N/A   Overcast
10:35 AM 66.2 °F - 58.8 °F 77% 29.89 in 10.0 mi NW 3.5 mph - N/A   Overcast
10:55 AM 68.7 °F - 59.9 °F 73% 29.89 in 7.0 mi NNW 5.8 mph - N/A   Overcast
11:15 AM 69.4 °F - 60.1 °F 72% 29.88 in 10.0 mi NNW 4.6 mph - N/A   Overcast
11:35 AM 71.1 °F - 60.8 °F 70% 29.88 in 10.0 mi NNW 4.6 mph - N/A   Overcast
11:55 AM 71.6 °F - 61.0 °F 69% 29.87 in 10.0 mi NNW 5.8 mph - N/A   Overcast
12:15 PM 71.8 °F - 60.8 °F 68% 29.86 in 10.0 mi NNW 5.8 mph - N/A   Overcast
12:35 PM 71.8 °F - 60.8 °F 68% 29.86 in 10.0 mi North 4.6 mph - N/A   Overcast
12:55 PM 74.1 °F - 61.0 °F 63% 29.86 in 10.0 mi NNW 3.5 mph - N/A   Overcast
1:15 PM 74.5 °F - 61.0 °F 63% 29.85 in 10.0 mi North 4.6 mph - N/A   Overcast
1:35 PM 74.1 °F - 60.8 °F 63% 29.83 in 10.0 mi North 3.5 mph - N/A   Mostly Cloudy
2:15 PM 76.3 °F - 61.2 °F 59% 29.81 in 10.0 mi NNW 8.1 mph - N/A   Overcast
2:35 PM 75.6 °F - 61.5 °F 62% 29.81 in 10.0 mi NNW 9.2 mph - N/A   Overcast
2:55 PM 76.8 °F - 61.2 °F 58% 29.80 in 10.0 mi North 5.8 mph - N/A   Overcast
3:15 PM 76.3 °F - 61.7 °F 60% 29.79 in 10.0 mi North 5.8 mph - N/A   Overcast
3:35 PM 77.4 °F - 61.9 °F 59% 29.79 in 10.0 mi North 8.1 mph - N/A   Overcast
3:55 PM 80.1 °F 81.1 °F 61.7 °F 53% 29.78 in 10.0 mi NNE 9.2 mph - N/A   Mostly Cloudy
4:15 PM 79.2 °F - 61.7 °F 55% 29.78 in 10.0 mi North 8.1 mph 16.1 mph N/A   Mostly Cloudy
4:35 PM 81.3 °F 82.1 °F 61.2 °F 50% 29.78 in 10.0 mi North 8.1 mph - N/A   Overcast
4:55 PM 80.6 °F 81.5 °F 60.8 °F 51% 29.78 in 10.0 mi North 9.2 mph 18.4 mph N/A   Mostly Cloudy
5:15 PM 79.2 °F - 60.8 °F 53% 29.79 in 10.0 mi NNE 10.4 mph 18.4 mph N/A   Clear
5:35 PM 77.9 °F - 60.1 °F 54% 29.80 in 10.0 mi NNE 11.5 mph 16.1 mph N/A   Clear
5:55 PM 77.0 °F - 59.9 °F 55% 29.80 in 10.0 mi NNE 11.5 mph 17.3 mph N/A   Mostly Cloudy
6:15 PM 75.2 °F - 59.7 °F 58% 29.82 in 10.0 mi North 10.4 mph 17.3 mph N/A   Scattered Clouds
6:35 PM 73.6 °F - 59.0 °F 60% 29.83 in 10.0 mi NNE 10.4 mph - N/A   Clear
6:55 PM 72.0 °F - 57.6 °F 60% 29.83 in 10.0 mi NNE 6.9 mph - N/A   Clear
7:15 PM 70.3 °F - 57.4 °F 63% 29.85 in 10.0 mi NNE 4.6 mph - N/A   Clear
7:35 PM 70.0 °F - 56.7 °F 63% 29.87 in 10.0 mi North 4.6 mph - N/A   Clear
8:15 PM 68.2 °F - 52.7 °F 58% 29.89 in 10.0 mi North 6.9 mph - N/A   Clear
8:35 PM 67.3 °F - 52.2 °F 58% 29.90 in 10.0 mi North 6.9 mph - N/A   Clear
8:55 PM 66.7 °F - 52.0 °F 59% 29.90 in 10.0 mi North 3.5 mph - N/A   Clear
9:15 PM 66.0 °F - 52.2 °F 61% 29.93 in 10.0 mi North 4.6 mph - N/A   Clear
9:35 PM 65.7 °F - 51.8 °F 61% 29.94 in 10.0 mi North 3.5 mph - N/A   Clear
9:55 PM 65.1 °F - 51.4 °F 61% 29.94 in 10.0 mi North 3.5 mph - N/A   Clear
10:15 PM 64.6 °F - 51.8 °F 63% 29.94 in 10.0 mi North 3.5 mph - N/A   Clear
10:35 PM 63.9 °F - 52.2 °F 66% 29.92 in 10.0 mi NE 5.8 mph - N/A   Clear
10:55 PM 63.9 °F - 52.5 °F 67% 29.93 in 10.0 mi NNE 4.6 mph - N/A   Clear
11:35 PM 63.7 °F - 52.5 °F 67% 29.96 in 10.0 mi Calm Calm - N/A   Clear
11:55 PM 63.0 °F - 52.7 °F 69% 29.97 in 10.0 mi Calm Calm - N/A   Clear